Flag for China Weather past 2 weeks in Guangzhou, Guangdong, China

Now
91 °F

Passing clouds.


Feels Like: 103 °F
Forecast: 78 / 94 °F
Wind: 1 mph from East

Location: Canton Airport

Current Time: Aug 29, 2014 at 8:02:13 PM

Latest Report: Aug 29, 2014 at 7:30 PM


Visibility: 5 mi

Pressure: 29.83 "Hg

Humidity: 59%

Dew point: 75 °F

Location of GuangzhouLocation

Historic Weather in Guangzhou — Graph

°F

Guangzhou temperature yesterday

Maximum temperature yesterday: 93 °F (at 1:00 PM)
Minimum temperature yesterday: 79 °F (at 7:30 PM)
Average temperature yesterday: 85 °F

Past Weeks' High & Low Weather Summary

 TemperatureHumidityPressure
High95 °F (Aug 18, 2:30 PM)100% (Aug 15, 6:00 AM)29.95 "Hg (Aug 15, 6:00 AM)
Low75 °F (Aug 19, 3:00 PM)44% (Aug 25, 1:00 PM)29.65 "Hg (Aug 17, 4:00 PM)
Average85 °F77%29.80 "Hg
* Reported Aug 14 7:00 PM — Aug 29 7:00 PM, Guangzhou, Weather by CustomWeather, © 2014

Note: Actual official high and low records may vary slightly from our data, if they occured in-between our weather recording intervals... More about our weather records

Advertising

Guangzhou weather history for previous 24 hours

 ConditionsComfort  
Time TempWeatherWind HumidityBarometerVisibility
7:00 PM
Aug 29
91 °FPassing clouds.1 mph59%29.83 "Hg5 mi
6:30 PM91 °FScattered clouds.1 mph56%29.83 "HgN/A
6:00 PM93 °FScattered clouds.1 mph53%29.80 "HgN/A
5:30 PM93 °FPassing clouds.1 mph53%29.83 "HgN/A
5:00 PM95 °FPassing clouds.1 mph47%29.83 "HgN/A
4:30 PM95 °FPassing clouds.1 mph50%29.83 "HgN/A
4:00 PM95 °FScattered clouds.1 mph50%29.83 "HgN/A
3:30 PM95 °FScattered clouds.1 mph53%29.86 "HgN/A
3:00 PM95 °FScattered clouds.1 mph53%29.86 "HgN/A
2:30 PM93 °FScattered clouds.3 mph53%29.86 "HgN/A
2:00 PM93 °FScattered clouds.1 mph53%29.89 "HgN/A
1:30 PM95 °FScattered clouds.1 mph50%29.89 "HgN/A
1:00 PM93 °FScattered clouds.1 mph53%29.89 "HgN/A
12:30 PM91 °FPartly sunny.1 mph59%29.92 "HgN/A
12:00 PM90 °FPartly sunny.1 mph67%29.92 "HgN/A
11:30 AM90 °FPartly sunny.1 mph67%29.92 "HgN/A
11:00 AM90 °FScattered clouds.3 mph63%29.95 "HgN/A
10:30 AM88 °FScattered clouds.1 mph66%29.95 "HgN/A
10:00 AM86 °FPassing clouds.3 mph75%29.95 "HgN/A
9:30 AM86 °FPassing clouds.3 mph75%29.92 "HgN/A
9:00 AM84 °FPassing clouds.3 mph79%29.92 "HgN/A
8:30 AM84 °FPassing clouds.3 mph79%29.92 "HgN/A
8:00 AM84 °FPassing clouds.No wind79%29.92 "HgN/A
7:30 AM82 °FSunny.No wind79%29.92 "Hg10 mi
7:00 AM81 °FSunny.No wind84%29.89 "Hg10 mi
6:30 AM79 °FSunny.No wind89%29.89 "Hg10 mi
6:00 AM79 °FClear.No wind89%29.89 "Hg10 mi
5:30 AM79 °FClear.No wind89%29.89 "Hg10 mi
5:00 AM79 °FClear.No wind89%29.89 "Hg10 mi
4:30 AM79 °FClear.No wind89%29.89 "Hg10 mi
4:00 AM81 °FClear.1 mph84%29.89 "Hg10 mi
3:30 AM79 °FClear.No wind89%29.89 "Hg10 mi
3:00 AM81 °FClear.No wind84%29.89 "Hg10 mi
2:30 AM81 °FClear.No wind84%29.89 "Hg10 mi
2:00 AM81 °FClear.3 mph84%29.92 "Hg10 mi
1:30 AM81 °FPassing clouds.No wind84%29.92 "HgN/A
1:00 AM81 °FClear.3 mph84%29.92 "Hg10 mi
12:30 AM81 °FClear.1 mph89%29.95 "Hg10 mi
12:00 AM81 °FClear.No wind84%29.95 "Hg10 mi
11:30 PM
Aug 28
81 °FClear.No wind84%29.95 "Hg10 mi
11:00 PM81 °FPassing clouds.3 mph84%29.95 "HgN/A
10:30 PM81 °FPassing clouds.1 mph89%29.95 "HgN/A
10:00 PM81 °FPassing clouds.No wind89%29.95 "HgN/A
9:30 PM81 °FPassing clouds.1 mph89%29.95 "HgN/A
9:00 PM81 °FPassing clouds.3 mph89%29.92 "HgN/A
8:30 PM79 °FClear.6 mph94%29.89 "Hg10 mi
8:00 PM81 °FSprinkles. Passing clouds.3 mph84%29.89 "HgN/A
Weather by CustomWeather, © 2014

See weather overviewHow to use our weather pages